Time,TemperatureF,DewpointF,PressureIn,WindDirection,WindDirectionDegrees,WindSpeedMPH,WindSpeedGustMPH,Humidity,HourlyPrecipIn,Conditions,Clouds,dailyrainin,SoftwareType,DateUTC
2013-07-14 00:01:00,70.7,69.5,30.33,WNW,297,0.0,0.0,96,0.00,RA,,0.00,WeatherDisplay:10.37,2013-07-14 04:01:00,
2013-07-14 00:06:00,70.8,69.6,30.33,WNW,297,0.0,0.0,96,0.00,RA,,0.00,WeatherDisplay:10.37,2013-07-14 04:06:00,
2013-07-14 00:11:00,70.9,69.7,30.33,WNW,297,0.0,0.0,96,0.00,OVC,,0.00,WeatherDisplay:10.37,2013-07-14 04:11:00,
2013-07-14 00:16:00,70.9,69.7,30.32,WNW,297,0.4,0.0,96,0.00,OVC,,0.00,WeatherDisplay:10.37,2013-07-14 04:16:00,
2013-07-14 00:21:00,70.8,69.6,30.32,WNW,297,0.7,1.2,96,0.00,OVC,,0.00,WeatherDisplay:10.37,2013-07-14 04:21:00,
2013-07-14 00:26:00,70.8,69.6,30.32,WNW,297,0.0,0.0,96,0.00,OVC,,0.00,WeatherDisplay:10.37,2013-07-14 04:26:00,
2013-07-14 00:31:00,70.7,69.5,30.32,WNW,297,0.0,0.0,96,0.00,OVC,,0.00,WeatherDisplay:10.37,2013-07-14 04:31:00,
2013-07-14 00:36:00,70.7,69.5,30.32,WNW,297,0.0,0.0,96,0.00,OVC,,0.00,WeatherDisplay:10.37,2013-07-14 04:36:00,
2013-07-14 00:41:00,70.7,69.5,30.32,WNW,297,0.0,0.0,96,0.00,OVC,,0.00,WeatherDisplay:10.37,2013-07-14 04:41:00,
2013-07-14 00:46:00,70.6,69.7,30.32,WNW,297,0.0,0.0,97,0.00,OVC,,0.00,WeatherDisplay:10.37,2013-07-14 04:46:00,
2013-07-14 00:51:00,70.5,69.6,30.33,WNW,297,0.3,1.2,97,0.00,OVC,,0.00,WeatherDisplay:10.37,2013-07-14 04:51:00,
2013-07-14 00:56:00,70.5,69.6,30.33,WNW,297,0.0,1.0,97,0.00,OVC,,0.00,WeatherDisplay:10.37,2013-07-14 04:56:00,
2013-07-14 01:01:00,70.5,69.6,30.33,WNW,297,0.0,0.0,97,0.00,OVC,,0.00,WeatherDisplay:10.37,2013-07-14 05:01:00,
2013-07-14 01:06:00,70.6,69.7,30.33,WNW,297,0.1,1.2,97,0.00,OVC,,0.00,WeatherDisplay:10.37,2013-07-14 05:06:00,
2013-07-14 01:11:00,70.6,69.4,30.33,WNW,297,0.1,1.2,96,0.00,OVC,,0.00,WeatherDisplay:10.37,2013-07-14 05:11:00,
2013-07-14 01:16:00,70.3,69.4,30.33,WNW,297,0.1,1.2,97,0.00,OVC,,0.00,WeatherDisplay:10.37,2013-07-14 05:16:00,
2013-07-14 01:21:00,70.3,69.4,30.33,WNW,297,1.4,2.3,97,0.00,OVC,,0.00,WeatherDisplay:10.37,2013-07-14 05:21:00,
2013-07-14 01:26:00,70.0,69.1,30.33,WNW,297,0.1,1.2,97,0.00,OVC,,0.00,WeatherDisplay:10.37,2013-07-14 05:26:00,
2013-07-14 01:31:00,69.9,69.0,30.33,WNW,297,1.2,2.3,97,0.00,OVC,,0.00,WeatherDisplay:10.37,2013-07-14 05:31:00,
2013-07-14 01:36:00,69.9,69.0,30.33,WNW,297,0.1,1.2,97,0.00,OVC,,0.00,WeatherDisplay:10.37,2013-07-14 05:36:00,
2013-07-14 01:41:00,69.9,69.0,30.33,WNW,297,0.0,0.0,97,0.00,OVC,,0.00,WeatherDisplay:10.37,2013-07-14 05:41:00,
2013-07-14 01:46:00,69.9,69.0,30.33,WNW,297,0.0,0.0,97,0.00,OVC,,0.00,WeatherDisplay:10.37,2013-07-14 05:46:00,
2013-07-14 01:51:00,69.8,68.9,30.33,WNW,297,0.0,0.0,97,0.00,OVC,,0.00,WeatherDisplay:10.37,2013-07-14 05:51:00,
2013-07-14 01:56:00,69.8,68.9,30.33,WNW,297,0.5,1.2,97,0.00,OVC,,0.00,WeatherDisplay:10.37,2013-07-14 05:56:00,
2013-07-14 02:01:00,69.9,69.0,30.33,WNW,297,0.0,0.0,97,0.00,OVC,,0.00,WeatherDisplay:10.37,2013-07-14 06:01:00,
2013-07-14 02:06:00,69.9,69.0,30.33,WNW,297,0.0,0.0,97,0.00,OVC,,0.00,WeatherDisplay:10.37,2013-07-14 06:06:00,
2013-07-14 02:11:00,70.0,69.1,30.34,WNW,297,0.9,1.2,97,0.00,OVC,,0.00,WeatherDisplay:10.37,2013-07-14 06:11:00,
2013-07-14 02:16:00,70.0,69.1,30.34,WNW,297,0.0,0.0,97,0.00,OVC,,0.00,WeatherDisplay:10.37,2013-07-14 06:16:00,
2013-07-14 02:21:00,70.1,69.2,30.34,WNW,297,0.0,0.0,97,0.00,OVC,,0.00,WeatherDisplay:10.37,2013-07-14 06:21:00,
2013-07-14 02:26:00,70.3,69.4,30.34,NW,321,1.8,3.5,97,0.00,OVC,,0.00,WeatherDisplay:10.37,2013-07-14 06:26:00,
2013-07-14 02:31:00,70.2,69.0,30.33,NW,305,0.5,2.3,96,0.00,OVC,,0.00,WeatherDisplay:10.37,2013-07-14 06:31:00,
2013-07-14 02:36:00,70.1,69.2,30.33,WNW,293,0.0,0.0,97,0.00,OVC,,0.00,WeatherDisplay:10.37,2013-07-14 06:36:00,
2013-07-14 02:41:00,70.1,69.2,30.33,WNW,293,0.1,1.2,97,0.00,OVC,,0.00,WeatherDisplay:10.37,2013-07-14 06:41:00,
2013-07-14 02:47:00,70.2,69.0,30.33,WNW,293,0.0,0.0,96,0.00,OVC,,0.00,WeatherDisplay:10.37,2013-07-14 06:47:00,
2013-07-14 02:52:00,70.1,69.2,30.33,WNW,293,0.0,0.0,97,0.00,OVC,,0.00,WeatherDisplay:10.37,2013-07-14 06:52:00,
2013-07-14 02:57:00,70.1,69.2,30.33,WNW,303,0.6,2.3,97,0.00,OVC,,0.00,WeatherDisplay:10.37,2013-07-14 06:57:00,
2013-07-14 03:02:00,70.1,69.2,30.33,NW,305,0.0,0.0,97,0.00,OVC,,0.00,WeatherDisplay:10.37,2013-07-14 07:02:00,
2013-07-14 03:07:00,70.2,69.3,30.34,NW,305,0.0,0.0,97,0.00,OVC,,0.00,WeatherDisplay:10.37,2013-07-14 07:07:00,
2013-07-14 03:12:00,70.2,69.3,30.33,NW,305,0.6,1.2,97,0.00,OVC,,0.00,WeatherDisplay:10.37,2013-07-14 07:12:00,
2013-07-14 03:17:00,70.0,69.1,30.34,NW,305,0.0,0.0,97,0.00,OVC,,0.00,WeatherDisplay:10.37,2013-07-14 07:17:00,
2013-07-14 03:22:00,70.1,69.2,30.34,NW,305,0.0,0.0,97,0.00,OVC,,0.00,WeatherDisplay:10.37,2013-07-14 07:22:00,
2013-07-14 03:27:00,70.1,69.2,30.34,NW,305,0.2,0.0,97,0.00,OVC,,0.00,WeatherDisplay:10.37,2013-07-14 07:27:00,
2013-07-14 03:32:00,70.2,69.3,30.34,NW,305,0.0,0.0,97,0.00,OVC,,0.00,WeatherDisplay:10.37,2013-07-14 07:32:00,
2013-07-14 03:37:00,70.2,69.3,30.34,NW,305,0.2,1.0,97,0.00,OVC,,0.00,WeatherDisplay:10.37,2013-07-14 07:37:00,
2013-07-14 03:42:00,70.1,69.2,30.34,NW,305,0.8,1.2,97,0.00,OVC,,0.00,WeatherDisplay:10.37,2013-07-14 07:42:00,
2013-07-14 03:47:00,70.0,69.1,30.33,NW,305,0.2,0.0,97,0.00,OVC,,0.00,WeatherDisplay:10.37,2013-07-14 07:47:00,
2013-07-14 03:52:00,69.8,68.9,30.33,NW,305,0.0,0.0,97,0.00,OVC,,0.00,WeatherDisplay:10.37,2013-07-14 07:52:00,
2013-07-14 03:57:00,69.7,68.8,30.33,NW,305,0.3,1.2,97,0.00,OVC,,0.00,WeatherDisplay:10.37,2013-07-14 07:57:00,
2013-07-14 04:02:00,69.5,68.6,30.33,NW,305,0.1,1.2,97,0.00,OVC,,0.00,WeatherDisplay:10.37,2013-07-14 08:02:00,
2013-07-14 04:07:00,69.5,68.6,30.33,NW,304,1.0,1.2,97,0.00,OVC,,0.00,WeatherDisplay:10.37,2013-07-14 08:07:00,
2013-07-14 04:12:00,69.6,68.7,30.33,NW,317,2.1,3.5,97,0.00,OVC,,0.00,WeatherDisplay:10.37,2013-07-14 08:12:00,
2013-07-14 04:17:00,69.4,68.5,30.33,NW,304,1.1,2.0,97,0.00,OVC,,0.00,WeatherDisplay:10.37,2013-07-14 08:17:00,
2013-07-14 04:22:00,69.3,68.4,30.33,NW,304,0.0,1.2,97,0.00,OVC,,0.00,WeatherDisplay:10.37,2013-07-14 08:22:00,
2013-07-14 04:27:00,69.3,68.4,30.33,SSE,157,1.1,2.3,97,0.00,OVC,,0.00,WeatherDisplay:10.37,2013-07-14 08:27:00,
2013-07-14 04:32:00,69.2,68.3,30.33,SSE,155,0.0,1.2,97,0.00,OVC,,0.00,WeatherDisplay:10.37,2013-07-14 08:32:00,
2013-07-14 04:37:00,69.0,68.1,30.33,SSE,155,1.0,1.2,97,0.00,OVC,,0.00,WeatherDisplay:10.37,2013-07-14 08:37:00,
2013-07-14 04:42:00,68.8,67.9,30.33,SSE,155,0.7,1.2,97,0.00,OVC,,0.00,WeatherDisplay:10.37,2013-07-14 08:42:00,
2013-07-14 04:47:00,68.8,67.9,30.34,SSE,155,0.3,1.2,97,0.00,OVC,,0.00,WeatherDisplay:10.37,2013-07-14 08:47:00,
2013-07-14 04:52:00,68.8,67.9,30.34,SSE,155,0.2,1.2,97,0.00,OVC,,0.00,WeatherDisplay:10.37,2013-07-14 08:52:00,
2013-07-14 04:57:00,68.9,68.3,30.34,SSE,155,0.1,1.2,98,0.00,OVC,,0.00,WeatherDisplay:10.37,2013-07-14 08:57:00,
2013-07-14 05:02:00,69.0,68.4,30.34,South,188,0.8,2.3,98,0.00,OVC,,0.00,WeatherDisplay:10.37,2013-07-14 09:02:00,
2013-07-14 05:07:00,69.2,68.6,30.34,SSW,207,0.1,1.2,98,0.00,OVC,,0.00,WeatherDisplay:10.37,2013-07-14 09:07:00,
2013-07-14 05:12:00,69.2,68.6,30.34,SSW,213,1.1,2.3,98,0.00,BKN,,0.00,WeatherDisplay:10.37,2013-07-14 09:12:00,
2013-07-14 05:17:00,69.5,68.9,30.34,West,274,1.0,2.3,98,0.00,BKN,,0.00,WeatherDisplay:10.37,2013-07-14 09:17:00,
2013-07-14 05:22:00,69.4,68.5,30.34,West,274,0.0,0.0,97,0.00,BKN,,0.00,WeatherDisplay:10.37,2013-07-14 09:22:00,
2013-07-14 05:27:00,69.4,68.5,30.34,West,274,0.0,0.0,97,0.00,BKN,,0.00,WeatherDisplay:10.37,2013-07-14 09:27:00,
2013-07-14 05:32:00,69.6,68.7,30.34,WNW,301,0.0,0.0,97,0.00,BKN,,0.00,WeatherDisplay:10.37,2013-07-14 09:32:00,
2013-07-14 05:37:00,69.8,68.9,30.34,WNW,301,0.5,1.2,97,0.00,BKN,,0.00,WeatherDisplay:10.37,2013-07-14 09:37:00,
2013-07-14 05:42:00,69.8,68.9,30.34,WNW,297,0.8,2.0,97,0.00,BKN,,0.00,WeatherDisplay:10.37,2013-07-14 09:42:00,
2013-07-14 05:47:00,69.7,68.8,30.34,SW,234,0.5,1.2,97,0.00,BKN,,0.00,WeatherDisplay:10.37,2013-07-14 09:47:00,
2013-07-14 05:52:00,69.7,68.8,30.34,WSW,246,0.5,1.2,97,0.00,BKN,,0.00,WeatherDisplay:10.37,2013-07-14 09:52:00,
2013-07-14 05:57:00,69.7,68.8,30.34,SW,229,0.6,1.2,97,0.00,BKN,,0.00,WeatherDisplay:10.37,2013-07-14 09:57:00,
2013-07-14 06:02:00,69.7,68.8,30.34,SW,230,0.8,1.2,97,0.00,BKN,,0.00,WeatherDisplay:10.37,2013-07-14 10:02:00,
2013-07-14 06:07:00,69.8,68.9,30.35,South,183,0.9,1.2,97,0.00,BKN,,0.00,WeatherDisplay:10.37,2013-07-14 10:07:00,
2013-07-14 06:12:00,69.7,68.8,30.35,WSW,257,1.4,3.5,97,0.00,OVC,,0.00,WeatherDisplay:10.37,2013-07-14 10:12:00,
2013-07-14 06:17:00,69.7,68.8,30.35,SW,217,1.0,2.3,97,0.00,OVC,,0.00,WeatherDisplay:10.37,2013-07-14 10:17:00,
2013-07-14 06:22:00,69.7,68.8,30.34,SSW,200,0.7,1.2,97,0.00,OVC,,0.00,WeatherDisplay:10.37,2013-07-14 10:22:00,
2013-07-14 06:27:00,69.7,68.8,30.34,SW,221,0.1,1.2,97,0.00,OVC,,0.00,WeatherDisplay:10.37,2013-07-14 10:27:00,
2013-07-14 06:32:00,69.9,68.7,30.34,SW,221,0.6,1.2,96,0.00,OVC,,0.00,WeatherDisplay:10.37,2013-07-14 10:32:00,
2013-07-14 06:37:00,70.1,68.9,30.35,SW,221,0.1,1.2,96,0.00,OVC,,0.00,WeatherDisplay:10.37,2013-07-14 10:37:00,
2013-07-14 06:42:00,69.9,69.0,30.35,SSE,159,0.5,2.3,97,0.00,OVC,,0.00,WeatherDisplay:10.37,2013-07-14 10:42:00,
2013-07-14 06:47:00,70.1,68.9,30.35,WNW,282,0.8,2.3,96,0.00,OVC,,0.00,WeatherDisplay:10.37,2013-07-14 10:47:00,
2013-07-14 06:52:00,70.3,69.1,30.35,WSW,257,0.2,1.2,96,0.00,OVC,,0.00,WeatherDisplay:10.37,2013-07-14 10:52:00,
2013-07-14 06:57:00,70.7,69.2,30.36,SE,136,0.4,2.3,95,0.00,OVC,,0.00,WeatherDisplay:10.37,2013-07-14 10:57:00,
2013-07-14 07:02:00,70.7,69.2,30.35,SSE,147,0.6,0.0,95,0.00,OVC,,0.00,WeatherDisplay:10.37,2013-07-14 11:02:00,
2013-07-14 07:07:00,71.1,69.6,30.36,SSE,148,0.6,2.3,95,0.00,OVC,,0.00,WeatherDisplay:10.37,2013-07-14 11:07:00,
2013-07-14 07:12:00,71.3,69.5,30.36,ESE,115,2.7,3.5,94,0.00,CLR,,0.00,WeatherDisplay:10.37,2013-07-14 11:12:00,
2013-07-14 07:17:00,71.3,69.5,30.36,ESE,102,0.8,2.3,94,0.00,CLR,,0.00,WeatherDisplay:10.37,2013-07-14 11:17:00,
2013-07-14 07:22:00,71.9,70.1,30.36,ESE,106,0.8,2.3,94,0.00,CLR,,0.00,WeatherDisplay:10.37,2013-07-14 11:22:00,
2013-07-14 07:27:00,72.6,70.5,30.36,SE,138,0.9,1.2,93,0.00,CLR,,0.00,WeatherDisplay:10.37,2013-07-14 11:27:00,
2013-07-14 07:32:00,73.0,70.9,30.36,SE,124,0.5,1.2,93,0.00,CLR,,0.00,WeatherDisplay:10.37,2013-07-14 11:32:00,
2013-07-14 07:37:00,72.9,70.8,30.36,SSE,160,1.5,1.5,93,0.00,CLR,,0.00,WeatherDisplay:10.37,2013-07-14 11:37:00,
2013-07-14 07:42:00,72.8,70.7,30.36,SSE,158,1.0,3.5,93,0.00,CLR,,0.00,WeatherDisplay:10.37,2013-07-14 11:42:00,
2013-07-14 07:47:00,72.8,70.7,30.36,South,177,0.8,2.3,93,0.00,CLR,,0.00,WeatherDisplay:10.37,2013-07-14 11:47:00,
2013-07-14 07:52:00,72.4,70.3,30.36,South,177,1.0,1.2,93,0.00,CLR,,0.00,WeatherDisplay:10.37,2013-07-14 11:52:00,
2013-07-14 07:57:00,72.2,70.4,30.36,SSE,156,1.6,3.5,94,0.00,CLR,,0.00,WeatherDisplay:10.37,2013-07-14 11:57:00,
2013-07-14 08:02:00,72.3,70.5,30.36,SE,129,1.2,2.3,94,0.00,CLR,,0.00,WeatherDisplay:10.37,2013-07-14 12:02:00,
2013-07-14 08:08:00,72.4,70.6,30.36,South,189,0.5,1.2,94,0.00,CLR,,0.00,WeatherDisplay:10.37,2013-07-14 12:08:00,
2013-07-14 08:13:00,72.7,70.9,30.36,South,176,0.3,1.2,94,0.00,BKN,,0.00,WeatherDisplay:10.37,2013-07-14 12:13:00,
2013-07-14 08:18:00,73.5,71.4,30.36,SSE,149,0.6,2.3,93,0.00,BKN,,0.00,WeatherDisplay:10.37,2013-07-14 12:18:00,
2013-07-14 08:23:00,73.7,71.2,30.36,SSE,156,1.0,2.3,92,0.00,BKN,,0.00,WeatherDisplay:10.37,2013-07-14 12:23:00,
2013-07-14 08:28:00,73.7,71.2,30.36,SSE,148,0.9,0.0,92,0.00,BKN,,0.00,WeatherDisplay:10.37,2013-07-14 12:28:00,
2013-07-14 08:33:00,73.9,71.4,30.36,ESE,117,1.9,1.9,92,0.00,BKN,,0.00,WeatherDisplay:10.37,2013-07-14 12:33:00,
2013-07-14 08:38:00,74.9,72.1,30.36,SE,146,0.1,1.2,91,0.00,BKN,,0.00,WeatherDisplay:10.37,2013-07-14 12:38:00,
2013-07-14 08:43:00,76.4,72.9,30.36,WSW,240,2.0,4.0,89,0.00,BKN,,0.00,WeatherDisplay:10.37,2013-07-14 12:43:00,
2013-07-14 08:48:00,76.1,72.3,30.36,NW,321,1.8,3.5,88,0.00,BKN,,0.00,WeatherDisplay:10.37,2013-07-14 12:48:00,
2013-07-14 08:53:00,77.4,73.6,30.36,East,85,1.2,2.3,88,0.00,BKN,,0.00,WeatherDisplay:10.37,2013-07-14 12:53:00,
2013-07-14 08:58:00,78.4,73.5,30.35,ESE,115,3.7,3.7,85,0.00,BKN,,0.00,WeatherDisplay:10.37,2013-07-14 12:58:00,
2013-07-14 09:03:00,78.2,73.0,30.35,SE,141,2.3,2.3,84,0.00,BKN,,0.00,WeatherDisplay:10.37,2013-07-14 13:03:00,
2013-07-14 09:08:00,78.7,73.1,30.35,ENE,78,3.5,5.8,83,0.00,BKN,,0.00,WeatherDisplay:10.37,2013-07-14 13:08:00,
2013-07-14 09:13:00,78.8,73.6,30.35,SSE,148,2.2,2.3,84,0.00,BKN,,0.00,WeatherDisplay:10.37,2013-07-14 13:13:00,
2013-07-14 09:18:00,78.5,73.6,30.35,SW,234,0.6,1.2,85,0.00,BKN,,0.00,WeatherDisplay:10.37,2013-07-14 13:18:00,
2013-07-14 09:23:00,79.6,74.0,30.34,SE,138,2.3,4.6,83,0.00,BKN,,0.00,WeatherDisplay:10.37,2013-07-14 13:23:00,
2013-07-14 09:28:00,80.9,74.9,30.34,East,92,1.3,2.0,82,0.00,BKN,,0.00,WeatherDisplay:10.37,2013-07-14 13:28:00,
2013-07-14 09:33:00,81.7,74.9,30.34,ESE,115,3.2,4.0,80,0.00,BKN,,0.00,WeatherDisplay:10.37,2013-07-14 13:33:00,
2013-07-14 09:38:00,82.2,74.3,30.34,ENE,64,0.2,2.0,77,0.00,BKN,,0.00,WeatherDisplay:10.37,2013-07-14 13:38:00,
2013-07-14 09:43:00,81.4,73.9,30.34,NW,315,1.9,2.3,78,0.00,BKN,,0.00,WeatherDisplay:10.37,2013-07-14 13:43:00,
2013-07-14 09:48:00,81.1,74.3,30.34,SE,140,1.9,5.8,80,0.00,BKN,,0.00,WeatherDisplay:10.37,2013-07-14 13:48:00,
2013-07-14 09:53:00,80.7,74.3,30.34,ESE,108,0.9,1.2,81,0.00,BKN,,0.00,WeatherDisplay:10.37,2013-07-14 13:53:00,
2013-07-14 09:58:00,81.0,74.6,30.34,SE,132,1.5,2.3,81,0.00,BKN,,0.00,WeatherDisplay:10.37,2013-07-14 13:58:00,
2013-07-14 10:03:00,82.5,74.6,30.34,ESE,123,3.3,6.9,77,0.00,BKN,,0.00,WeatherDisplay:10.37,2013-07-14 14:03:00,
2013-07-14 10:08:00,81.7,73.8,30.34,SW,221,2.3,3.5,77,0.00,BKN,,0.00,WeatherDisplay:10.37,2013-07-14 14:08:00,
2013-07-14 10:13:00,81.4,74.3,30.34,NNW,344,0.8,2.3,79,0.00,SCT,,0.00,WeatherDisplay:10.37,2013-07-14 14:13:00,
2013-07-14 10:18:00,82.9,75.3,30.34,SE,128,2.0,3.5,78,0.00,SCT,,0.00,WeatherDisplay:10.37,2013-07-14 14:18:00,
2013-07-14 10:23:00,83.6,73.6,30.34,SE,131,3.0,4.6,72,0.00,SCT,,0.00,WeatherDisplay:10.37,2013-07-14 14:23:00,
2013-07-14 10:28:00,84.1,73.7,30.34,South,189,2.5,3.5,71,0.00,SCT,,0.00,WeatherDisplay:10.37,2013-07-14 14:28:00,
2013-07-14 10:33:00,83.1,72.3,30.33,SE,132,1.0,1.2,70,0.00,SCT,,0.00,WeatherDisplay:10.37,2013-07-14 14:33:00,
2013-07-14 10:38:00,82.3,72.0,30.33,North,349,1.0,1.2,71,0.00,SCT,,0.00,WeatherDisplay:10.37,2013-07-14 14:38:00,
2013-07-14 10:43:00,81.7,73.0,30.33,NNW,332,1.0,2.3,75,0.00,SCT,,0.00,WeatherDisplay:10.37,2013-07-14 14:43:00,
2013-07-14 10:48:00,81.2,73.3,30.33,South,185,1.8,2.3,77,0.00,SCT,,0.00,WeatherDisplay:10.37,2013-07-14 14:48:00,
2013-07-14 10:53:00,81.9,73.2,30.33,SSE,157,1.2,1.2,75,0.00,SCT,,0.00,WeatherDisplay:10.37,2013-07-14 14:53:00,
2013-07-14 10:58:00,84.2,74.6,30.33,ESE,109,2.0,6.0,73,0.00,SCT,,0.00,WeatherDisplay:10.37,2013-07-14 14:58:00,
2013-07-14 11:03:00,85.1,73.8,30.33,SSE,165,1.1,2.3,69,0.00,SCT,,0.00,WeatherDisplay:10.37,2013-07-14 15:03:00,
2013-07-14 11:08:00,84.2,73.3,30.33,WNW,298,1.3,2.3,70,0.00,SCT,,0.00,WeatherDisplay:10.37,2013-07-14 15:08:00,
2013-07-14 11:13:00,85.9,75.8,30.33,SSW,194,2.8,3.5,72,0.00,SCT,,0.00,WeatherDisplay:10.37,2013-07-14 15:13:00,
2013-07-14 11:18:00,85.8,72.7,30.33,SSE,155,2.4,3.5,65,0.00,SCT,,0.00,WeatherDisplay:10.37,2013-07-14 15:18:00,
2013-07-14 11:23:00,85.0,72.4,30.33,WNW,285,1.3,3.5,66,0.00,SCT,,0.00,WeatherDisplay:10.37,2013-07-14 15:23:00,
2013-07-14 11:28:00,84.0,72.7,30.33,ESE,119,2.1,3.5,69,0.00,SCT,,0.00,WeatherDisplay:10.37,2013-07-14 15:28:00,
2013-07-14 11:33:00,85.1,73.8,30.33,North,355,2.3,3.5,69,0.00,SCT,,0.00,WeatherDisplay:10.37,2013-07-14 15:33:00,
2013-07-14 11:38:00,85.3,73.5,30.33,SSE,161,1.2,3.5,68,0.00,SCT,,0.00,WeatherDisplay:10.37,2013-07-14 15:38:00,
2013-07-14 11:43:00,86.3,72.7,30.32,ENE,61,3.1,3.1,64,0.00,SCT,,0.00,WeatherDisplay:10.37,2013-07-14 15:43:00,
2013-07-14 11:48:00,85.5,73.7,30.32,SSE,153,0.9,1.2,68,0.00,SCT,,0.00,WeatherDisplay:10.37,2013-07-14 15:48:00,
2013-07-14 11:53:00,85.9,75.0,30.32,North,360,2.4,3.5,70,0.00,SCT,,0.00,WeatherDisplay:10.37,2013-07-14 15:53:00,
2013-07-14 11:58:00,86.4,73.2,30.32,SSE,156,1.4,5.0,65,0.00,SCT,,0.00,WeatherDisplay:10.37,2013-07-14 15:58:00,
2013-07-14 12:03:00,87.5,72.4,30.32,NW,313,2.1,3.5,61,0.00,SCT,,0.00,WeatherDisplay:10.37,2013-07-14 16:03:00,
2013-07-14 12:08:00,87.2,72.6,30.32,WSW,244,1.8,3.5,62,0.00,SCT,,0.00,WeatherDisplay:10.37,2013-07-14 16:08:00,
2013-07-14 12:13:00,87.5,71.9,30.32,ESE,123,1.1,3.5,60,0.00,SCT,,0.00,WeatherDisplay:10.37,2013-07-14 16:13:00,
2013-07-14 12:18:00,87.1,70.5,30.32,SW,236,1.2,1.2,58,0.00,SCT,,0.00,WeatherDisplay:10.37,2013-07-14 16:18:00,
2013-07-14 12:23:00,86.0,72.4,30.32,ESE,121,2.9,5.8,64,0.00,SCT,,0.00,WeatherDisplay:10.37,2013-07-14 16:23:00,
2013-07-14 12:28:00,85.6,72.9,30.32,SE,145,1.1,2.3,66,0.00,SCT,,0.00,WeatherDisplay:10.37,2013-07-14 16:28:00,
2013-07-14 12:33:00,87.1,72.0,30.32,SE,128,2.2,3.5,61,0.00,SCT,,0.00,WeatherDisplay:10.37,2013-07-14 16:33:00,
2013-07-14 12:38:00,87.7,72.1,30.31,SSE,157,1.8,2.3,60,0.00,SCT,,0.00,WeatherDisplay:10.37,2013-07-14 16:38:00,
2013-07-14 12:43:00,87.4,71.8,30.31,NW,314,1.5,3.5,60,0.00,SCT,,0.00,WeatherDisplay:10.37,2013-07-14 16:43:00,
2013-07-14 12:48:00,87.8,72.7,30.31,ESE,117,2.2,3.5,61,0.00,SCT,,0.00,WeatherDisplay:10.37,2013-07-14 16:48:00,
2013-07-14 12:53:00,87.6,71.0,30.31,East,96,0.1,1.2,58,0.00,SCT,,0.00,WeatherDisplay:10.37,2013-07-14 16:53:00,
2013-07-14 12:58:00,85.8,72.2,30.31,WNW,299,2.2,3.5,64,0.00,SCT,,0.00,WeatherDisplay:10.37,2013-07-14 16:58:00,
2013-07-14 13:03:00,84.6,72.4,30.31,WNW,290,0.8,1.2,67,0.00,SCT,,0.00,WeatherDisplay:10.37,2013-07-14 17:03:00,
2013-07-14 13:08:00,85.0,73.3,30.31,North,349,0.6,2.3,68,0.00,SCT,,0.00,WeatherDisplay:10.37,2013-07-14 17:08:00,
2013-07-14 13:13:00,86.0,73.3,30.31,East,97,1.5,3.5,66,0.00,SCT,,0.00,WeatherDisplay:10.37,2013-07-14 17:13:00,
2013-07-14 13:18:00,87.2,74.5,30.30,East,101,1.5,2.3,66,0.00,SCT,,0.00,WeatherDisplay:10.37,2013-07-14 17:18:00,
2013-07-14 13:23:00,87.8,73.2,30.31,ESE,111,2.2,4.0,62,0.00,SCT,,0.00,WeatherDisplay:10.37,2013-07-14 17:23:00,
2013-07-14 13:28:00,87.0,72.4,30.30,SW,231,1.0,4.6,62,0.00,SCT,,0.00,WeatherDisplay:10.37,2013-07-14 17:28:00,
2013-07-14 13:33:00,86.5,72.4,30.31,SSW,205,1.7,0.0,63,0.00,SCT,,0.00,WeatherDisplay:10.37,2013-07-14 17:33:00,
2013-07-14 13:38:00,86.1,72.0,30.30,NNE,21,1.6,2.3,63,0.00,SCT,,0.00,WeatherDisplay:10.37,2013-07-14 17:38:00,
2013-07-14 13:44:00,86.7,73.1,30.30,SSW,212,0.6,1.2,64,0.00,SCT,,0.00,WeatherDisplay:10.37,2013-07-14 17:44:00,
2013-07-14 13:49:00,88.5,72.8,30.30,NW,314,2.0,3.5,60,0.00,SCT,,0.00,WeatherDisplay:10.37,2013-07-14 17:49:00,
2013-07-14 13:54:00,86.1,73.4,30.30,SSE,158,1.0,1.2,66,0.00,SCT,,0.00,WeatherDisplay:10.37,2013-07-14 17:54:00,
2013-07-14 13:59:00,85.9,73.7,30.30,WSW,252,0.8,2.3,67,0.00,SCT,,0.00,WeatherDisplay:10.37,2013-07-14 17:59:00,
2013-07-14 14:04:00,84.9,74.0,30.30,NW,321,0.8,2.3,70,0.00,SCT,,0.00,WeatherDisplay:10.37,2013-07-14 18:04:00,
2013-07-14 14:09:00,85.0,75.4,30.30,NNW,338,1.0,1.2,73,0.00,SCT,,0.00,WeatherDisplay:10.37,2013-07-14 18:09:00,
2013-07-14 14:14:00,84.2,72.9,30.30,SE,142,1.5,2.3,69,0.00,SCT,,0.00,WeatherDisplay:10.37,2013-07-14 18:14:00,
2013-07-14 14:19:00,85.2,73.9,30.30,SSW,199,1.1,2.3,69,0.00,SCT,,0.00,WeatherDisplay:10.37,2013-07-14 18:19:00,
2013-07-14 14:24:00,85.2,73.9,30.29,SE,144,0.1,1.2,69,0.00,SCT,,0.00,WeatherDisplay:10.37,2013-07-14 18:24:00,
2013-07-14 14:29:00,85.6,73.8,30.29,SSE,153,1.4,2.0,68,0.00,SCT,,0.00,WeatherDisplay:10.37,2013-07-14 18:29:00,
2013-07-14 14:34:00,86.0,73.3,30.29,SSE,153,1.5,0.0,66,0.00,SCT,,0.00,WeatherDisplay:10.37,2013-07-14 18:34:00,
2013-07-14 14:39:00,87.1,74.8,30.29,ESE,119,3.1,3.1,67,0.00,SCT,,0.00,WeatherDisplay:10.37,2013-07-14 18:39:00,
2013-07-14 14:44:00,86.7,74.4,30.29,South,184,1.4,3.5,67,0.00,SCT,,0.00,WeatherDisplay:10.37,2013-07-14 18:44:00,
2013-07-14 14:49:00,85.8,75.7,30.29,SSW,198,0.0,0.0,72,0.00,SCT,,0.00,WeatherDisplay:10.37,2013-07-14 18:49:00,
2013-07-14 14:54:00,86.2,75.3,30.29,SSE,151,0.0,1.2,70,0.00,SCT,,0.00,WeatherDisplay:10.37,2013-07-14 18:54:00,
2013-07-14 14:59:00,87.1,74.8,30.29,NW,321,1.0,3.0,67,0.00,SCT,,0.00,WeatherDisplay:10.37,2013-07-14 18:59:00,
2013-07-14 15:04:00,86.4,75.0,30.28,South,180,0.9,2.3,69,0.00,SCT,,0.00,WeatherDisplay:10.37,2013-07-14 19:04:00,
2013-07-14 15:09:00,86.7,74.9,30.28,SSW,212,1.8,2.3,68,0.00,SCT,,0.00,WeatherDisplay:10.37,2013-07-14 19:09:00,
2013-07-14 15:14:00,85.2,73.9,30.28,SSW,212,1.0,1.2,69,0.00,SCT,,0.00,WeatherDisplay:10.37,2013-07-14 19:14:00,
2013-07-14 15:19:00,85.9,75.0,30.28,SSW,211,1.8,2.0,70,0.00,SCT,,0.00,WeatherDisplay:10.37,2013-07-14 19:19:00,
2013-07-14 15:24:00,85.9,75.0,30.28,SW,229,1.9,3.5,70,0.00,BKN,,0.00,WeatherDisplay:10.37,2013-07-14 19:24:00,
2013-07-14 15:29:00,84.6,75.0,30.28,SSW,209,1.8,2.3,73,0.00,BKN,,0.00,WeatherDisplay:10.37,2013-07-14 19:29:00,
2013-07-14 15:34:00,84.6,75.8,30.28,South,173,1.3,2.3,75,0.00,BKN,,0.00,WeatherDisplay:10.37,2013-07-14 19:34:00,
2013-07-14 15:39:00,86.8,72.7,30.28,SW,227,1.0,2.3,63,0.00,BKN,,0.00,WeatherDisplay:10.37,2013-07-14 19:39:00,
2013-07-14 15:44:00,87.5,74.7,30.27,South,186,0.7,1.2,66,0.00,BKN,,0.00,WeatherDisplay:10.37,2013-07-14 19:44:00,
2013-07-14 15:49:00,88.3,74.6,30.27,SW,221,1.9,3.5,64,0.00,BKN,,0.00,WeatherDisplay:10.37,2013-07-14 19:49:00,
2013-07-14 15:54:00,88.5,73.8,30.27,SW,220,2.5,3.5,62,0.00,BKN,,0.00,WeatherDisplay:10.37,2013-07-14 19:54:00,
2013-07-14 15:59:00,89.2,74.0,30.27,WSW,237,2.0,3.5,61,0.00,BKN,,0.00,WeatherDisplay:10.37,2013-07-14 19:59:00,
2013-07-14 16:04:00,88.9,73.7,30.26,WSW,252,2.7,5.8,61,0.00,BKN,,0.00,WeatherDisplay:10.37,2013-07-14 20:04:00,
2013-07-14 16:09:00,87.3,72.7,30.27,WNW,296,3.4,3.5,62,0.00,BKN,,0.00,WeatherDisplay:10.37,2013-07-14 20:09:00,
2013-07-14 16:14:00,87.0,72.9,30.27,South,175,1.3,2.3,63,0.00,BKN,,0.00,WeatherDisplay:10.37,2013-07-14 20:14:00,
2013-07-14 16:19:00,87.5,72.4,30.27,WSW,238,2.1,3.5,61,0.00,BKN,,0.00,WeatherDisplay:10.37,2013-07-14 20:19:00,
2013-07-14 16:24:00,87.8,72.7,30.26,NE,34,2.8,3.5,61,0.00,BKN,,0.00,WeatherDisplay:10.37,2013-07-14 20:24:00,
2013-07-14 16:29:00,87.7,73.1,30.26,NNE,15,1.3,3.5,62,0.00,BKN,,0.00,WeatherDisplay:10.37,2013-07-14 20:29:00,
2013-07-14 16:34:00,87.6,73.0,30.26,SE,130,1.6,3.5,62,0.00,BKN,,0.00,WeatherDisplay:10.37,2013-07-14 20:34:00,
2013-07-14 16:39:00,87.3,74.5,30.26,SSE,166,0.7,1.2,66,0.00,BKN,,0.00,WeatherDisplay:10.37,2013-07-14 20:39:00,
2013-07-14 16:44:00,87.9,74.7,30.26,NNW,327,1.0,2.3,65,0.00,BKN,,0.00,WeatherDisplay:10.37,2013-07-14 20:44:00,
2013-07-14 16:49:00,88.2,74.5,30.26,NW,323,2.8,3.5,64,0.00,BKN,,0.00,WeatherDisplay:10.37,2013-07-14 20:49:00,
2013-07-14 16:54:00,86.9,74.2,30.26,North,349,1.3,3.5,66,0.00,BKN,,0.00,WeatherDisplay:10.37,2013-07-14 20:54:00,
2013-07-14 16:59:00,86.9,74.2,30.26,WSW,252,0.8,1.2,66,0.00,BKN,,0.00,WeatherDisplay:10.37,2013-07-14 20:59:00,
2013-07-14 17:04:00,87.2,74.9,30.26,SSW,209,1.4,2.3,67,0.00,BKN,,0.00,WeatherDisplay:10.37,2013-07-14 21:04:00,
2013-07-14 17:09:00,88.0,75.2,30.26,WNW,289,0.3,2.3,66,0.00,BKN,,0.00,WeatherDisplay:10.37,2013-07-14 21:09:00,
2013-07-14 17:14:00,87.8,75.0,30.25,NW,316,0.6,1.2,66,0.00,BKN,,0.00,WeatherDisplay:10.37,2013-07-14 21:14:00,
2013-07-14 17:20:00,87.7,74.0,30.25,South,188,1.9,2.3,64,0.00,BKN,,0.00,WeatherDisplay:10.37,2013-07-14 21:20:00,
2013-07-14 17:25:00,87.8,73.6,30.25,SSW,206,1.5,2.3,63,0.00,BKN,,0.00,WeatherDisplay:10.37,2013-07-14 21:25:00,
2013-07-14 17:30:00,87.4,73.7,30.25,SW,221,2.6,4.6,64,0.00,BKN,,0.00,WeatherDisplay:10.37,2013-07-14 21:30:00,
2013-07-14 17:35:00,87.0,73.8,30.25,North,5,1.9,2.3,65,0.00,BKN,,0.00,WeatherDisplay:10.37,2013-07-14 21:35:00,
2013-07-14 17:40:00,86.6,73.9,30.25,North,360,0.2,1.2,66,0.00,BKN,,0.00,WeatherDisplay:10.37,2013-07-14 21:40:00,
2013-07-14 17:45:00,86.3,73.6,30.25,South,172,1.6,2.3,66,0.00,BKN,,0.00,WeatherDisplay:10.37,2013-07-14 21:45:00,
2013-07-14 17:50:00,84.9,74.0,30.25,WSW,253,0.9,1.2,70,0.00,BKN,,0.00,WeatherDisplay:10.37,2013-07-14 21:50:00,
2013-07-14 17:55:00,83.5,74.3,30.25,West,259,0.9,2.3,74,0.00,BKN,,0.00,WeatherDisplay:10.37,2013-07-14 21:55:00,
2013-07-14 18:00:00,83.4,74.6,30.25,WSW,248,0.9,2.3,75,0.00,BKN,,0.00,WeatherDisplay:10.37,2013-07-14 22:00:00,
2013-07-14 18:05:00,84.1,76.5,30.25,WNW,298,1.1,1.2,78,0.00,BKN,,0.00,WeatherDisplay:10.37,2013-07-14 22:05:00,
2013-07-14 18:10:00,84.4,74.4,30.25,WNW,293,0.3,1.2,72,0.00,BKN,,0.00,WeatherDisplay:10.37,2013-07-14 22:10:00,
2013-07-14 18:15:00,84.4,74.4,30.25,WNW,292,0.9,0.0,72,0.00,BKN,,0.00,WeatherDisplay:10.37,2013-07-14 22:15:00,
2013-07-14 18:20:00,84.6,75.0,30.25,SW,225,1.3,2.3,73,0.00,BKN,,0.00,WeatherDisplay:10.37,2013-07-14 22:20:00,
2013-07-14 18:25:00,84.7,75.9,30.25,WNW,301,1.8,1.8,75,0.00,SCT,,0.00,WeatherDisplay:10.37,2013-07-14 22:25:00,
2013-07-14 18:30:00,85.1,75.1,30.25,West,276,0.0,0.0,72,0.00,SCT,,0.00,WeatherDisplay:10.37,2013-07-14 22:30:00,
2013-07-14 18:35:00,84.3,74.7,30.25,West,277,0.8,1.2,73,0.00,SCT,,0.00,WeatherDisplay:10.37,2013-07-14 22:35:00,
2013-07-14 18:40:00,83.8,76.2,30.25,WNW,296,1.6,3.5,78,0.00,SCT,,0.00,WeatherDisplay:10.37,2013-07-14 22:40:00,
2013-07-14 18:45:00,83.6,76.4,30.25,NW,313,1.1,1.2,79,0.00,SCT,,0.00,WeatherDisplay:10.37,2013-07-14 22:45:00,
2013-07-14 18:50:00,83.4,76.6,30.25,WNW,303,1.9,2.3,80,0.00,SCT,,0.00,WeatherDisplay:10.37,2013-07-14 22:50:00,
2013-07-14 18:55:00,83.0,76.9,30.25,WNW,299,1.9,2.3,82,0.00,SCT,,0.00,WeatherDisplay:10.37,2013-07-14 22:55:00,
2013-07-14 19:00:00,82.7,77.0,30.25,WNW,296,1.5,2.3,83,0.00,SCT,,0.00,WeatherDisplay:10.37,2013-07-14 23:00:00,
2013-07-14 19:05:00,82.7,76.3,30.25,WNW,296,0.3,1.2,81,0.00,SCT,,0.00,WeatherDisplay:10.37,2013-07-14 23:05:00,
2013-07-14 19:10:00,82.2,76.2,30.24,WSW,257,1.0,2.3,82,0.00,SCT,,0.00,WeatherDisplay:10.37,2013-07-14 23:10:00,
2013-07-14 19:15:00,81.9,76.2,30.24,WNW,290,1.5,1.5,83,0.00,SCT,,0.00,WeatherDisplay:10.37,2013-07-14 23:15:00,
2013-07-14 19:20:00,81.7,76.4,30.24,NW,305,1.4,3.0,84,0.00,SCT,,0.00,WeatherDisplay:10.37,2013-07-14 23:20:00,
2013-07-14 19:25:00,81.3,76.0,30.24,NW,305,1.2,2.3,84,0.00,SCT,,0.00,WeatherDisplay:10.37,2013-07-14 23:25:00,
2013-07-14 19:30:00,80.7,75.8,30.24,WNW,296,2.0,2.3,85,0.00,SCT,,0.00,WeatherDisplay:10.37,2013-07-14 23:30:00,
2013-07-14 19:35:00,80.5,75.9,30.24,West,275,1.2,2.3,86,0.00,SCT,,0.00,WeatherDisplay:10.37,2013-07-14 23:35:00,
2013-07-14 19:40:00,80.4,75.5,30.24,WNW,284,2.4,2.4,85,0.00,SCT,,0.00,WeatherDisplay:10.37,2013-07-14 23:40:00,
2013-07-14 19:45:00,80.2,75.6,30.24,WNW,285,2.0,3.5,86,0.00,SCT,,0.00,WeatherDisplay:10.37,2013-07-14 23:45:00,
2013-07-14 19:50:00,80.0,75.4,30.24,WNW,286,1.4,2.3,86,0.00,SCT,,0.00,WeatherDisplay:10.37,2013-07-14 23:50:00,
2013-07-14 19:55:00,79.7,75.1,30.24,WNW,285,3.0,3.5,86,0.00,SCT,,0.00,WeatherDisplay:10.37,2013-07-14 23:55:00,
2013-07-14 20:00:00,79.2,75.0,30.24,West,281,2.1,3.0,87,0.00,SCT,,0.00,WeatherDisplay:10.37,2013-07-15 00:00:00,
2013-07-14 20:05:00,79.1,74.9,30.24,WNW,297,2.8,2.8,87,0.00,SCT,,0.00,WeatherDisplay:10.37,2013-07-15 00:05:00,
2013-07-14 20:10:00,78.6,74.4,30.24,WNW,298,2.9,3.5,87,0.00,SCT,,0.00,WeatherDisplay:10.37,2013-07-15 00:10:00,
2013-07-14 20:15:00,78.2,74.4,30.25,WNW,299,3.3,3.5,88,0.00,SCT,,0.00,WeatherDisplay:10.37,2013-07-15 00:15:00,
2013-07-14 20:20:00,78.1,73.9,30.25,WNW,290,2.9,3.5,87,0.00,SCT,,0.00,WeatherDisplay:10.37,2013-07-15 00:20:00,
2013-07-14 20:25:00,77.8,73.6,30.25,WNW,296,2.5,3.5,87,0.00,SCT,,0.00,WeatherDisplay:10.37,2013-07-15 00:25:00,
2013-07-14 20:30:00,77.6,73.4,30.25,NW,304,2.0,2.3,87,0.00,SCT,,0.00,WeatherDisplay:10.37,2013-07-15 00:30:00,
2013-07-14 20:35:00,77.5,73.3,30.25,NW,304,1.4,2.3,87,0.00,SCT,,0.00,WeatherDisplay:10.37,2013-07-15 00:35:00,
2013-07-14 20:40:00,77.6,73.4,30.26,NW,313,2.1,3.5,87,0.00,SCT,,0.00,WeatherDisplay:10.37,2013-07-15 00:40:00,
2013-07-14 20:45:00,77.4,73.2,30.26,NW,315,1.9,2.3,87,0.00,SCT,,0.00,WeatherDisplay:10.37,2013-07-15 00:45:00,
2013-07-14 20:50:00,77.4,73.6,30.25,NW,320,1.6,3.0,88,0.00,SCT,,0.00,WeatherDisplay:10.37,2013-07-15 00:50:00,
2013-07-14 20:55:00,77.5,73.3,30.25,NW,309,1.3,3.5,87,0.00,SCT,,0.00,WeatherDisplay:10.37,2013-07-15 00:55:00,
2013-07-14 21:00:00,77.4,73.6,30.25,NW,304,2.0,2.3,88,0.00,SCT,,0.00,WeatherDisplay:10.37,2013-07-15 01:00:00,
2013-07-14 21:05:00,77.0,73.2,30.25,WNW,296,1.9,2.3,88,0.00,SCT,,0.00,WeatherDisplay:10.37,2013-07-15 01:05:00,
2013-07-14 21:10:00,76.8,73.3,30.25,WNW,302,0.4,2.3,89,0.00,SCT,,0.00,WeatherDisplay:10.37,2013-07-15 01:10:00,
2013-07-14 21:15:00,77.2,73.4,30.25,NW,304,1.3,2.3,88,0.00,SCT,,0.00,WeatherDisplay:10.37,2013-07-15 01:15:00,
2013-07-14 21:20:00,77.3,73.5,30.26,WSW,244,0.1,1.2,88,0.00,SCT,,0.00,WeatherDisplay:10.37,2013-07-15 01:20:00,
2013-07-14 21:25:00,77.2,73.4,30.26,WNW,286,1.1,2.3,88,0.00,SCT,,0.00,WeatherDisplay:10.37,2013-07-15 01:25:00,
2013-07-14 21:30:00,77.0,73.2,30.26,West,277,0.4,0.0,88,0.00,SCT,,0.00,WeatherDisplay:10.37,2013-07-15 01:30:00,
2013-07-14 21:35:00,76.9,73.4,30.26,WNW,297,0.5,1.2,89,0.00,SCT,,0.00,WeatherDisplay:10.37,2013-07-15 01:35:00,
2013-07-14 21:40:00,76.9,73.1,30.26,WNW,284,1.4,2.3,88,0.00,SCT,,0.00,WeatherDisplay:10.37,2013-07-15 01:40:00,
2013-07-14 21:45:00,77.0,72.8,30.26,WSW,238,1.3,2.3,87,0.00,SCT,,0.00,WeatherDisplay:10.37,2013-07-15 01:45:00,
2013-07-14 21:50:00,77.1,72.9,30.26,WNW,288,1.3,1.3,87,0.00,SCT,,0.00,WeatherDisplay:10.37,2013-07-15 01:50:00,
2013-07-14 21:55:00,76.6,72.4,30.26,West,261,2.0,2.3,87,0.00,SCT,,0.00,WeatherDisplay:10.37,2013-07-15 01:55:00,
2013-07-14 22:00:00,76.4,72.6,30.26,West,273,1.2,2.3,88,0.00,SCT,,0.00,WeatherDisplay:10.37,2013-07-15 02:00:00,
2013-07-14 22:05:00,76.0,72.5,30.26,NW,309,1.4,3.5,89,0.00,SCT,,0.00,WeatherDisplay:10.37,2013-07-15 02:05:00,
2013-07-14 22:10:00,75.8,72.3,30.26,West,267,2.1,2.1,89,0.00,SCT,,0.00,WeatherDisplay:10.37,2013-07-15 02:10:00,
2013-07-14 22:15:00,75.5,72.4,30.26,WNW,290,0.6,2.3,90,0.00,SCT,,0.00,WeatherDisplay:10.37,2013-07-15 02:15:00,
2013-07-14 22:20:00,75.4,72.3,30.26,WNW,296,1.5,2.3,90,0.00,SCT,,0.00,WeatherDisplay:10.37,2013-07-15 02:20:00,
2013-07-14 22:25:00,74.8,72.0,30.26,NW,311,2.0,2.3,91,0.00,SCT,,0.00,WeatherDisplay:10.37,2013-07-15 02:25:00,
2013-07-14 22:30:00,74.5,72.0,30.26,NW,316,1.8,3.5,92,0.00,SCT,,0.00,WeatherDisplay:10.37,2013-07-15 02:30:00,
2013-07-14 22:35:00,74.2,71.7,30.26,NW,317,1.0,2.3,92,0.00,SCT,,0.00,WeatherDisplay:10.37,2013-07-15 02:35:00,
2013-07-14 22:40:00,74.1,71.9,30.26,NW,317,0.0,0.0,93,0.00,SCT,,0.00,WeatherDisplay:10.37,2013-07-15 02:40:00,
2013-07-14 22:45:00,74.2,72.0,30.26,NW,317,0.6,0.0,93,0.00,SCT,,0.00,WeatherDisplay:10.37,2013-07-15 02:45:00,
2013-07-14 22:50:00,74.4,71.9,30.26,NW,312,2.0,3.5,92,0.00,SCT,,0.00,WeatherDisplay:10.37,2013-07-15 02:50:00,
2013-07-14 22:55:00,74.8,72.0,30.26,SW,236,2.1,3.5,91,0.00,SCT,,0.00,WeatherDisplay:10.37,2013-07-15 02:55:00,
2013-07-14 23:01:00,74.8,72.0,30.26,SSW,201,0.4,1.2,91,0.00,SCT,,0.00,WeatherDisplay:10.37,2013-07-15 03:01:00,
2013-07-14 23:06:00,74.4,71.9,30.26,NW,324,1.0,3.5,92,0.00,SCT,,0.00,WeatherDisplay:10.37,2013-07-15 03:06:00,
2013-07-14 23:11:00,74.0,71.5,30.26,NW,324,0.0,0.0,92,0.00,SCT,,0.00,WeatherDisplay:10.37,2013-07-15 03:11:00,
2013-07-14 23:16:00,73.9,71.4,30.26,NW,324,0.4,2.3,92,0.00,SCT,,0.00,WeatherDisplay:10.37,2013-07-15 03:16:00,
2013-07-14 23:21:00,73.9,71.7,30.26,NW,324,0.2,1.2,93,0.00,SCT,,0.00,WeatherDisplay:10.37,2013-07-15 03:21:00,
2013-07-14 23:26:00,73.9,71.7,30.26,NW,319,0.4,1.2,93,0.00,SKC,,0.00,WeatherDisplay:10.37,2013-07-15 03:26:00,
2013-07-14 23:31:00,74.0,71.8,30.26,WNW,290,0.3,0.0,93,0.00,SKC,,0.00,WeatherDisplay:10.37,2013-07-15 03:31:00,
2013-07-14 23:36:00,74.6,72.1,30.26,SSW,210,0.8,2.3,92,0.00,SKC,,0.00,WeatherDisplay:10.37,2013-07-15 03:36:00,
2013-07-14 23:41:00,74.7,71.9,30.26,SSW,200,0.7,2.3,91,0.00,SKC,,0.00,WeatherDisplay:10.37,2013-07-15 03:41:00,
2013-07-14 23:46:00,74.0,71.5,30.27,SSW,200,0.0,0.0,92,0.00,SKC,,0.00,WeatherDisplay:10.37,2013-07-15 03:46:00,
2013-07-14 23:51:00,73.8,71.6,30.27,SSW,194,0.0,1.2,93,0.00,SKC,,0.00,WeatherDisplay:10.37,2013-07-15 03:51:00,
2013-07-14 23:56:00,73.6,71.4,30.27,SSW,195,0.0,0.0,93,0.00,SKC,,0.00,WeatherDisplay:10.37,2013-07-15 03:56:00,